Time,TemperatureF,DewpointF,PressureIn,WindDirection,WindDirectionDegrees,WindSpeedMPH,WindSpeedGustMPH,Humidity,HourlyPrecipIn,Conditions,Clouds,dailyrainin,SoftwareType,DateUTC
2013-06-04 00:02:00,54.0,-99.9,-100.00,NE,45,7.0,15.0,-999,-99.99,,,-99.99,,2013-06-04 07:02:00,
2013-06-04 00:13:00,54.0,-99.9,-100.00,NE,45,7.0,15.0,-999,-99.99,,,-99.99,,2013-06-04 07:13:00,
2013-06-04 00:22:00,53.0,-99.9,-100.00,NE,45,8.0,13.0,-999,-99.99,,,-99.99,,2013-06-04 07:22:00,
2013-06-04 00:32:00,54.0,-99.9,-100.00,NE,45,6.0,13.0,-999,-99.99,,,-99.99,,2013-06-04 07:32:00,
2013-06-04 00:42:00,53.0,-99.9,-100.00,East,90,5.0,10.0,-999,-99.99,,,-99.99,,2013-06-04 07:42:00,
2013-06-04 00:52:00,53.0,-99.9,-100.00,East,90,5.0,10.0,-999,-99.99,,,-99.99,,2013-06-04 07:52:00,
2013-06-04 01:02:00,53.0,-99.9,-100.00,NE,45,8.0,11.0,-999,-99.99,,,-99.99,,2013-06-04 08:02:00,
2013-06-04 01:12:00,53.0,-99.9,-100.00,NE,45,8.0,11.0,-999,-99.99,,,-99.99,,2013-06-04 08:12:00,
2013-06-04 01:22:00,53.0,-99.9,-100.00,NE,45,4.0,11.0,-999,-99.99,,,-99.99,,2013-06-04 08:22:00,
2013-06-04 01:32:00,53.0,-99.9,-100.00,East,90,1.0,8.0,-999,-99.99,,,-99.99,,2013-06-04 08:32:00,
2013-06-04 01:42:00,53.0,-99.9,-100.00,East,90,1.0,8.0,-999,-99.99,,,-99.99,,2013-06-04 08:42:00,
2013-06-04 01:52:00,53.0,-99.9,-100.00,SE,135,3.0,6.0,-999,-99.99,,,-99.99,,2013-06-04 08:52:00,
2013-06-04 02:02:00,52.0,-99.9,-100.00,SE,135,2.0,4.0,-999,-99.99,,,-99.99,,2013-06-04 09:02:00,
2013-06-04 02:13:00,52.0,-99.9,-100.00,SE,135,2.0,4.0,-999,-99.99,,,-99.99,,2013-06-04 09:13:00,
2013-06-04 02:22:00,52.0,-99.9,-100.00,SE,135,2.0,4.0,-999,-99.99,,,-99.99,,2013-06-04 09:22:00,
2013-06-04 02:33:00,52.0,-99.9,-100.00,East,90,2.0,4.0,-999,-99.99,,,-99.99,,2013-06-04 09:33:00,
2013-06-04 02:43:00,52.0,-99.9,-100.00,East,90,2.0,4.0,-999,-99.99,,,-99.99,,2013-06-04 09:43:00,
2013-06-04 02:53:00,52.0,-99.9,-100.00,SE,135,3.0,4.0,-999,-99.99,,,-99.99,,2013-06-04 09:53:00,
2013-06-04 03:03:00,51.0,-99.9,-100.00,SE,135,3.0,4.0,-999,-99.99,,,-99.99,,2013-06-04 10:03:00,
2013-06-04 03:12:00,51.0,-99.9,-100.00,SE,135,3.0,4.0,-999,-99.99,,,-99.99,,2013-06-04 10:12:00,
2013-06-04 03:23:00,51.0,-99.9,-100.00,SE,135,3.0,4.0,-999,-99.99,,,-99.99,,2013-06-04 10:23:00,
2013-06-04 03:33:00,51.0,-99.9,-100.00,SE,135,1.0,3.0,-999,-99.99,,,-99.99,,2013-06-04 10:33:00,
2013-06-04 03:42:00,51.0,-99.9,-100.00,SE,135,1.0,3.0,-999,-99.99,,,-99.99,,2013-06-04 10:42:00,
2013-06-04 03:53:00,51.0,-99.9,-100.00,East,90,0.0,3.0,-999,-99.99,,,-99.99,,2013-06-04 10:53:00,
2013-06-04 04:02:00,51.0,-99.9,-100.00,South,180,0.0,3.0,-999,-99.99,,,-99.99,,2013-06-04 11:02:00,
2013-06-04 04:12:00,51.0,-99.9,-100.00,South,180,0.0,3.0,-999,-99.99,,,-99.99,,2013-06-04 11:12:00,
2013-06-04 04:22:00,51.0,-99.9,-100.00,East,90,0.0,3.0,-999,-99.99,,,-99.99,,2013-06-04 11:22:00,
2013-06-04 04:32:00,51.0,-99.9,-100.00,SE,135,1.0,3.0,-999,-99.99,,,-99.99,,2013-06-04 11:32:00,
2013-06-04 04:43:00,51.0,-99.9,-100.00,SE,135,1.0,3.0,-999,-99.99,,,-99.99,,2013-06-04 11:43:00,
2013-06-04 04:52:00,51.0,-99.9,-100.00,East,90,1.0,3.0,-999,-99.99,,,-99.99,,2013-06-04 11:52:00,
2013-06-04 05:02:00,50.0,-99.9,-100.00,East,90,1.0,3.0,-999,-99.99,,,-99.99,,2013-06-04 12:02:00,
2013-06-04 05:12:00,50.0,-99.9,-100.00,East,90,3.0,4.0,-999,-99.99,,,-99.99,,2013-06-04 12:12:00,
2013-06-04 05:22:00,50.0,-99.9,-100.00,East,90,3.0,4.0,-999,-99.99,,,-99.99,,2013-06-04 12:22:00,
2013-06-04 05:32:00,50.0,-99.9,-100.00,East,90,3.0,5.0,-999,-99.99,,,-99.99,,2013-06-04 12:32:00,
2013-06-04 05:42:00,50.0,-99.9,-100.00,East,90,3.0,5.0,-999,-99.99,,,-99.99,,2013-06-04 12:42:00,
2013-06-04 05:53:00,50.0,-99.9,-100.00,East,90,4.0,5.0,-999,-99.99,,,-99.99,,2013-06-04 12:53:00,
2013-06-04 06:03:00,50.0,-99.9,-100.00,SE,135,4.0,5.0,-999,-99.99,,,-99.99,,2013-06-04 13:03:00,
2013-06-04 06:12:00,50.0,-99.9,-100.00,SE,135,4.0,5.0,-999,-99.99,,,-99.99,,2013-06-04 13:12:00,
2013-06-04 06:23:00,50.0,-99.9,-100.00,SE,135,4.0,5.0,-999,-99.99,,,-99.99,,2013-06-04 13:23:00,
2013-06-04 06:32:00,50.0,-99.9,-100.00,SE,135,1.0,6.0,-999,-99.99,,,-99.99,,2013-06-04 13:32:00,
2013-06-04 06:42:00,50.0,-99.9,-100.00,SE,135,1.0,6.0,-999,-99.99,,,-99.99,,2013-06-04 13:42:00,
2013-06-04 06:52:00,51.0,-99.9,-100.00,SE,135,3.0,6.0,-999,-99.99,,,-99.99,,2013-06-04 13:52:00,
2013-06-04 07:02:00,51.0,-99.9,-100.00,SE,135,3.0,4.0,-999,-99.99,,,-99.99,,2013-06-04 14:02:00,
2013-06-04 07:12:00,51.0,-99.9,-100.00,SE,135,3.0,4.0,-999,-99.99,,,-99.99,,2013-06-04 14:12:00,
2013-06-04 07:23:00,51.0,-99.9,-100.00,SE,135,3.0,4.0,-999,-99.99,,,-99.99,,2013-06-04 14:23:00,
2013-06-04 07:32:00,52.0,-99.9,-100.00,SE,135,0.0,4.0,-999,-99.99,,,-99.99,,2013-06-04 14:32:00,
2013-06-04 07:43:00,52.0,-99.9,-100.00,SE,135,0.0,4.0,-999,-99.99,,,-99.99,,2013-06-04 14:43:00,
2013-06-04 07:52:00,54.0,-99.9,-100.00,SE,135,0.0,2.0,-999,-99.99,,,-99.99,,2013-06-04 14:52:00,
2013-06-04 08:02:00,54.0,-99.9,-100.00,SE,135,0.0,2.0,-999,-99.99,,,-99.99,,2013-06-04 15:02:00,
2013-06-04 08:12:00,54.0,-99.9,-100.00,SE,135,0.0,2.0,-999,-99.99,,,-99.99,,2013-06-04 15:12:00,
2013-06-04 08:22:00,56.0,-99.9,-100.00,NE,45,2.0,5.0,-999,-99.99,,,-99.99,,2013-06-04 15:22:00,
2013-06-04 08:33:00,56.0,-99.9,-100.00,NE,45,4.0,8.0,-999,-99.99,,,-99.99,,2013-06-04 15:33:00,
2013-06-04 08:42:00,56.0,-99.9,-100.00,NE,45,4.0,8.0,-999,-99.99,,,-99.99,,2013-06-04 15:42:00,
2013-06-04 08:53:00,57.0,-99.9,-100.00,NE,45,7.0,10.0,-999,-99.99,,,-99.99,,2013-06-04 15:53:00,
2013-06-04 09:03:00,57.0,-99.9,-100.00,NE,45,9.0,12.0,-999,-99.99,,,-99.99,,2013-06-04 16:03:00,
2013-06-04 09:13:00,57.0,-99.9,-100.00,NE,45,9.0,12.0,-999,-99.99,,,-99.99,,2013-06-04 16:13:00,
2013-06-04 09:23:00,58.0,-99.9,-100.00,NE,45,9.0,12.0,-999,-99.99,,,-99.99,,2013-06-04 16:23:00,
2013-06-04 09:33:00,58.0,-99.9,-100.00,NE,45,8.0,12.0,-999,-99.99,,,-99.99,,2013-06-04 16:33:00,
2013-06-04 09:42:00,58.0,-99.9,-100.00,NE,45,8.0,12.0,-999,-99.99,,,-99.99,,2013-06-04 16:42:00,
2013-06-04 09:53:00,58.0,-99.9,-100.00,NE,45,14.0,16.0,-999,-99.99,,,-99.99,,2013-06-04 16:53:00,
2013-06-04 10:03:00,58.0,-99.9,-100.00,NE,45,13.0,17.0,-999,-99.99,,,-99.99,,2013-06-04 17:03:00,
2013-06-04 10:12:00,58.0,-99.9,-100.00,NE,45,13.0,17.0,-999,-99.99,,,-99.99,,2013-06-04 17:12:00,
2013-06-04 10:23:00,58.0,-99.9,-100.00,NE,45,14.0,17.0,-999,-99.99,,,-99.99,,2013-06-04 17:23:00,
2013-06-04 10:33:00,59.0,-99.9,-100.00,NE,45,14.0,18.0,-999,-99.99,,,-99.99,,2013-06-04 17:33:00,
2013-06-04 10:42:00,59.0,-99.9,-100.00,NE,45,14.0,18.0,-999,-99.99,,,-99.99,,2013-06-04 17:42:00,
2013-06-04 10:52:00,59.0,-99.9,-100.00,NE,45,11.0,18.0,-999,-99.99,,,-99.99,,2013-06-04 17:52:00,
2013-06-04 11:02:00,59.0,-99.9,-100.00,NE,45,16.0,19.0,-999,-99.99,,,-99.99,,2013-06-04 18:02:00,
2013-06-04 11:12:00,59.0,-99.9,-100.00,NE,45,16.0,19.0,-999,-99.99,,,-99.99,,2013-06-04 18:12:00,
2013-06-04 11:22:00,59.0,-99.9,-100.00,NE,45,17.0,19.0,-999,-99.99,,,-99.99,,2013-06-04 18:22:00,
2013-06-04 11:32:00,59.0,-99.9,-100.00,NE,45,18.0,21.0,-999,-99.99,,,-99.99,,2013-06-04 18:32:00,
2013-06-04 11:42:00,59.0,-99.9,-100.00,NE,45,18.0,21.0,-999,-99.99,,,-99.99,,2013-06-04 18:42:00,
2013-06-04 11:53:00,59.0,-99.9,-100.00,NE,45,19.0,24.0,-999,-99.99,,,-99.99,,2013-06-04 18:53:00,
2013-06-04 12:02:00,59.0,-99.9,-100.00,NE,45,17.0,24.0,-999,-99.99,,,-99.99,,2013-06-04 19:02:00,
2013-06-04 12:12:00,59.0,-99.9,-100.00,NE,45,17.0,24.0,-999,-99.99,,,-99.99,,2013-06-04 19:12:00,
2013-06-04 12:22:00,59.0,-99.9,-100.00,NE,45,19.0,25.0,-999,-99.99,,,-99.99,,2013-06-04 19:22:00,
2013-06-04 12:33:00,59.0,-99.9,-100.00,NE,45,19.0,26.0,-999,-99.99,,,-99.99,,2013-06-04 19:33:00,
2013-06-04 12:42:00,59.0,-99.9,-100.00,NE,45,19.0,26.0,-999,-99.99,,,-99.99,,2013-06-04 19:42:00,
2013-06-04 12:52:00,59.0,-99.9,-100.00,NE,45,23.0,27.0,-999,-99.99,,,-99.99,,2013-06-04 19:52:00,
2013-06-04 13:03:00,59.0,-99.9,-100.00,NE,45,23.0,28.0,-999,-99.99,,,-99.99,,2013-06-04 20:03:00,
2013-06-04 13:13:00,59.0,-99.9,-100.00,NE,45,23.0,28.0,-999,-99.99,,,-99.99,,2013-06-04 20:13:00,
2013-06-04 13:22:00,59.0,-99.9,-100.00,NE,45,24.0,29.0,-999,-99.99,,,-99.99,,2013-06-04 20:22:00,
2013-06-04 13:32:00,60.0,-99.9,-100.00,NE,45,24.0,29.0,-999,-99.99,,,-99.99,,2013-06-04 20:32:00,
2013-06-04 13:42:00,60.0,-99.9,-100.00,NE,45,24.0,29.0,-999,-99.99,,,-99.99,,2013-06-04 20:42:00,
2013-06-04 13:53:00,59.0,-99.9,-100.00,NE,45,21.0,29.0,-999,-99.99,,,-99.99,,2013-06-04 20:53:00,
2013-06-04 14:02:00,60.0,-99.9,-100.00,NE,45,20.0,29.0,-999,-99.99,,,-99.99,,2013-06-04 21:02:00,
2013-06-04 14:12:00,60.0,-99.9,-100.00,NE,45,20.0,29.0,-999,-99.99,,,-99.99,,2013-06-04 21:12:00,
2013-06-04 14:22:00,60.0,-99.9,-100.00,NE,45,24.0,29.0,-999,-99.99,,,-99.99,,2013-06-04 21:22:00,
2013-06-04 14:33:00,60.0,-99.9,-100.00,NE,45,22.0,29.0,-999,-99.99,,,-99.99,,2013-06-04 21:33:00,
2013-06-04 14:43:00,60.0,-99.9,-100.00,NE,45,22.0,29.0,-999,-99.99,,,-99.99,,2013-06-04 21:43:00,
2013-06-04 14:53:00,60.0,-99.9,-100.00,NE,45,26.0,29.0,-999,-99.99,,,-99.99,,2013-06-04 21:53:00,
2013-06-04 15:02:00,60.0,-99.9,-100.00,NE,45,21.0,29.0,-999,-99.99,,,-99.99,,2013-06-04 22:02:00,
2013-06-04 15:13:00,60.0,-99.9,-100.00,NE,45,21.0,29.0,-999,-99.99,,,-99.99,,2013-06-04 22:13:00,
2013-06-04 15:22:00,60.0,-99.9,-100.00,NE,45,21.0,29.0,-999,-99.99,,,-99.99,,2013-06-04 22:22:00,
2013-06-04 15:33:00,63.0,-99.9,-100.00,NE,45,23.0,29.0,-999,-99.99,,,-99.99,,2013-06-04 22:33:00,
2013-06-04 15:42:00,63.0,-99.9,-100.00,NE,45,23.0,29.0,-999,-99.99,,,-99.99,,2013-06-04 22:42:00,
2013-06-04 15:52:00,62.0,-99.9,-100.00,NE,45,19.0,28.0,-999,-99.99,,,-99.99,,2013-06-04 22:52:00,
2013-06-04 16:02:00,62.0,-99.9,-100.00,NE,45,18.0,28.0,-999,-99.99,,,-99.99,,2013-06-04 23:02:00,
2013-06-04 16:12:00,62.0,-99.9,-100.00,NE,45,18.0,28.0,-999,-99.99,,,-99.99,,2013-06-04 23:12:00,
2013-06-04 16:22:00,61.0,-99.9,-100.00,NE,45,21.0,28.0,-999,-99.99,,,-99.99,,2013-06-04 23:22:00,
2013-06-04 16:32:00,61.0,-99.9,-100.00,NE,45,21.0,28.0,-999,-99.99,,,-99.99,,2013-06-04 23:32:00,
2013-06-04 16:42:00,61.0,-99.9,-100.00,NE,45,21.0,28.0,-999,-99.99,,,-99.99,,2013-06-04 23:42:00,
2013-06-04 16:52:00,61.0,-99.9,-100.00,NE,45,23.0,29.0,-999,-99.99,,,-99.99,,2013-06-04 23:52:00,
2013-06-04 17:02:00,61.0,-99.9,-100.00,NE,45,26.0,31.0,-999,-99.99,,,-99.99,,2013-06-05 00:02:00,
2013-06-04 17:12:00,61.0,-99.9,-100.00,NE,45,26.0,31.0,-999,-99.99,,,-99.99,,2013-06-05 00:12:00,
2013-06-04 17:22:00,61.0,-99.9,-100.00,NE,45,23.0,31.0,-999,-99.99,,,-99.99,,2013-06-05 00:22:00,
2013-06-04 17:33:00,61.0,-99.9,-100.00,NE,45,25.0,31.0,-999,-99.99,,,-99.99,,2013-06-05 00:33:00,
2013-06-04 17:42:00,61.0,-99.9,-100.00,NE,45,25.0,31.0,-999,-99.99,,,-99.99,,2013-06-05 00:42:00,
2013-06-04 17:52:00,61.0,-99.9,-100.00,NE,45,26.0,31.0,-999,-99.99,,,-99.99,,2013-06-05 00:52:00,
2013-06-04 18:02:00,60.0,-99.9,-100.00,NE,45,26.0,31.0,-999,-99.99,,,-99.99,,2013-06-05 01:02:00,
2013-06-04 18:12:00,60.0,-99.9,-100.00,NE,45,26.0,31.0,-999,-99.99,,,-99.99,,2013-06-05 01:12:00,
2013-06-04 18:22:00,59.0,-99.9,-100.00,NE,45,21.0,32.0,-999,-99.99,,,-99.99,,2013-06-05 01:22:00,
2013-06-04 18:32:00,59.0,-99.9,-100.00,NE,45,21.0,32.0,-999,-99.99,,,-99.99,,2013-06-05 01:32:00,
2013-06-04 18:42:00,59.0,-99.9,-100.00,NE,45,21.0,32.0,-999,-99.99,,,-99.99,,2013-06-05 01:42:00,
2013-06-04 18:52:00,58.0,-99.9,-100.00,NE,45,23.0,32.0,-999,-99.99,,,-99.99,,2013-06-05 01:52:00,
2013-06-04 19:02:00,58.0,-99.9,-100.00,NE,45,24.0,32.0,-999,-99.99,,,-99.99,,2013-06-05 02:02:00,
2013-06-04 19:12:00,58.0,-99.9,-100.00,NE,45,24.0,32.0,-999,-99.99,,,-99.99,,2013-06-05 02:12:00,
2013-06-04 19:22:00,58.0,-99.9,-100.00,NE,45,21.0,32.0,-999,-99.99,,,-99.99,,2013-06-05 02:22:00,
2013-06-04 19:32:00,58.0,-99.9,-100.00,NE,45,19.0,29.0,-999,-99.99,,,-99.99,,2013-06-05 02:32:00,
2013-06-04 19:42:00,58.0,-99.9,-100.00,NE,45,19.0,29.0,-999,-99.99,,,-99.99,,2013-06-05 02:42:00,
2013-06-04 19:52:00,59.0,-99.9,-100.00,NE,45,14.0,28.0,-999,-99.99,,,-99.99,,2013-06-05 02:52:00,
2013-06-04 20:03:00,59.0,-99.9,-100.00,NE,45,12.0,24.0,-999,-99.99,,,-99.99,,2013-06-05 03:03:00,
2013-06-04 20:12:00,59.0,-99.9,-100.00,NE,45,12.0,24.0,-999,-99.99,,,-99.99,,2013-06-05 03:12:00,
2013-06-04 20:22:00,58.0,-99.9,-100.00,NE,45,19.0,22.0,-999,-99.99,,,-99.99,,2013-06-05 03:22:00,
2013-06-04 20:33:00,57.0,-99.9,-100.00,NE,45,19.0,23.0,-999,-99.99,,,-99.99,,2013-06-05 03:33:00,
2013-06-04 20:43:00,57.0,-99.9,-100.00,NE,45,19.0,23.0,-999,-99.99,,,-99.99,,2013-06-05 03:43:00,
2013-06-04 20:53:00,57.0,-99.9,-100.00,NE,45,21.0,27.0,-999,-99.99,,,-99.99,,2013-06-05 03:53:00,
2013-06-04 21:03:00,57.0,-99.9,-100.00,NE,45,19.0,27.0,-999,-99.99,,,-99.99,,2013-06-05 04:03:00,
2013-06-04 21:13:00,57.0,-99.9,-100.00,NE,45,19.0,27.0,-999,-99.99,,,-99.99,,2013-06-05 04:13:00,
2013-06-04 21:23:00,56.0,-99.9,-100.00,NE,45,17.0,26.0,-999,-99.99,,,-99.99,,2013-06-05 04:23:00,
2013-06-04 21:33:00,56.0,-99.9,-100.00,NE,45,21.0,29.0,-999,-99.99,,,-99.99,,2013-06-05 04:33:00,
2013-06-04 21:43:00,56.0,-99.9,-100.00,NE,45,21.0,29.0,-999,-99.99,,,-99.99,,2013-06-05 04:43:00,
2013-06-04 21:53:00,56.0,-99.9,-100.00,NE,45,17.0,29.0,-999,-99.99,,,-99.99,,2013-06-05 04:53:00,
2013-06-04 22:02:00,56.0,-99.9,-100.00,NE,45,16.0,25.0,-999,-99.99,,,-99.99,,2013-06-05 05:02:00,
2013-06-04 22:12:00,56.0,-99.9,-100.00,NE,45,16.0,25.0,-999,-99.99,,,-99.99,,2013-06-05 05:12:00,
2013-06-04 22:23:00,56.0,-99.9,-100.00,NE,45,14.0,25.0,-999,-99.99,,,-99.99,,2013-06-05 05:23:00,
2013-06-04 22:32:00,56.0,-99.9,-100.00,NE,45,12.0,22.0,-999,-99.99,,,-99.99,,2013-06-05 05:32:00,
2013-06-04 22:42:00,56.0,-99.9,-100.00,NE,45,12.0,22.0,-999,-99.99,,,-99.99,,2013-06-05 05:42:00,
2013-06-04 22:53:00,56.0,-99.9,-100.00,NE,45,11.0,17.0,-999,-99.99,,,-99.99,,2013-06-05 05:53:00,
2013-06-04 23:02:00,56.0,-99.9,-100.00,NE,45,12.0,17.0,-999,-99.99,,,-99.99,,2013-06-05 06:02:00,
2013-06-04 23:12:00,56.0,-99.9,-100.00,NE,45,12.0,17.0,-999,-99.99,,,-99.99,,2013-06-05 06:12:00,
2013-06-04 23:22:00,56.0,-99.9,-100.00,NE,45,16.0,19.0,-999,-99.99,,,-99.99,,2013-06-05 06:22:00,
2013-06-04 23:32:00,55.0,-99.9,-100.00,NE,45,15.0,21.0,-999,-99.99,,,-99.99,,2013-06-05 06:32:00,
2013-06-04 23:42:00,55.0,-99.9,-100.00,NE,45,15.0,21.0,-999,-99.99,,,-99.99,,2013-06-05 06:42:00,
2013-06-04 23:52:00,55.0,-99.9,-100.00,NE,45,16.0,21.0,-999,-99.99,,,-99.99,,2013-06-05 06:52:00,